TimeMDT,TemperatureF,Dew PointF,Humidity,Sea Level PressureIn,VisibilityMPH,Wind Direction,Wind SpeedMPH,Gust SpeedMPH,PrecipitationIn,Events,Conditions,WindDirDegrees,DateUTC
12:15 AM,19.4,14.0,80,30.18,10.0,NW,26.5,-,N/A,,Clear,310,2013-03-10 07:15:00
12:35 AM,19.4,14.0,80,30.18,10.0,NW,25.3,-,N/A,,Clear,310,2013-03-10 07:35:00
1:15 AM,21.2,14.0,74,30.18,10.0,WNW,25.3,-,N/A,,Clear,290,2013-03-10 08:15:00
1:35 AM,21.2,14.0,74,30.19,10.0,WNW,24.2,-,N/A,,Clear,300,2013-03-10 08:35:00
1:55 AM,21.2,14.0,74,30.19,10.0,WNW,23.0,-,N/A,,Clear,290,2013-03-10 08:55:00
3:15 AM,21.2,14.0,74,30.18,10.0,WNW,24.2,-,N/A,,Clear,290,2013-03-10 09:15:00
3:35 AM,21.2,14.0,74,30.18,10.0,WNW,23.0,-,N/A,,Clear,290,2013-03-10 09:35:00
3:55 AM,21.2,14.0,74,30.18,10.0,WNW,23.0,-,N/A,,Clear,290,2013-03-10 09:55:00
4:15 AM,21.2,14.0,74,30.18,10.0,WNW,21.9,-,N/A,,Clear,290,2013-03-10 10:15:00
4:35 AM,21.2,14.0,74,30.18,10.0,WNW,20.7,-,N/A,,Clear,300,2013-03-10 10:35:00
4:55 AM,21.2,14.0,74,30.18,10.0,WNW,19.6,-,N/A,,Clear,300,2013-03-10 10:55:00
5:15 AM,23.0,14.0,68,30.19,10.0,NW,21.9,-,N/A,,Clear,310,2013-03-10 11:15:00
5:35 AM,23.0,12.2,63,30.19,10.0,NW,20.7,-,N/A,,Clear,310,2013-03-10 11:35:00
5:55 AM,26.6,10.4,51,30.20,10.0,NW,19.6,-,N/A,,Clear,310,2013-03-10 11:55:00
6:15 AM,26.6,10.4,51,30.20,10.0,NW,20.7,-,N/A,,Clear,310,2013-03-10 12:15:00
6:35 AM,26.6,10.4,51,30.20,10.0,NW,20.7,-,N/A,,Clear,310,2013-03-10 12:35:00
6:55 AM,24.8,10.4,54,30.20,10.0,NW,19.6,-,N/A,,Clear,310,2013-03-10 12:55:00
7:15 AM,24.8,10.4,54,30.20,10.0,NW,21.9,-,N/A,,Clear,310,2013-03-10 13:15:00
7:35 AM,24.8,10.4,54,30.20,10.0,NW,19.6,-,N/A,,Clear,320,2013-03-10 13:35:00
7:55 AM,26.6,8.6,47,30.21,10.0,NW,18.4,-,N/A,,Clear,320,2013-03-10 13:55:00
8:15 AM,26.6,10.4,51,30.21,10.0,NW,13.8,-,N/A,,Clear,310,2013-03-10 14:15:00
8:35 AM,26.6,8.6,47,30.21,10.0,NW,12.7,-,N/A,,Clear,310,2013-03-10 14:35:00
8:55 AM,26.6,10.4,51,30.22,10.0,WNW,13.8,-,N/A,,Clear,300,2013-03-10 14:55:00
9:15 AM,28.4,10.4,47,30.23,10.0,WNW,13.8,-,N/A,,Clear,290,2013-03-10 15:15:00
9:35 AM,28.4,10.4,47,30.23,10.0,WNW,12.7,-,N/A,,Clear,290,2013-03-10 15:35:00
9:55 AM,28.4,10.4,47,30.24,10.0,WNW,13.8,-,N/A,,Clear,300,2013-03-10 15:55:00
10:15 AM,30.2,10.4,44,30.24,10.0,WNW,13.8,-,N/A,,Clear,300,2013-03-10 16:15:00
10:35 AM,30.2,12.2,47,30.24,10.0,NW,12.7,-,N/A,,Clear,310,2013-03-10 16:35:00
10:55 AM,30.2,12.2,47,30.24,10.0,NW,9.2,-,N/A,,Clear,310,2013-03-10 16:55:00
11:15 AM,32.0,10.4,41,30.24,10.0,WNW,8.1,-,N/A,,Clear,290,2013-03-10 17:15:00
11:35 AM,32.0,10.4,41,30.23,10.0,West,8.1,-,N/A,,Clear,280,2013-03-10 17:35:00
12:15 PM,32.0,10.4,41,30.23,10.0,West,4.6,-,N/A,,Clear,280,2013-03-10 18:15:00
12:35 PM,33.8,10.4,38,30.22,10.0,WNW,4.6,-,N/A,,Clear,300,2013-03-10 18:35:00
12:55 PM,32.0,14.0,48,30.21,10.0,Calm,Calm,-,N/A,,Clear,0,2013-03-10 18:55:00
1:15 PM,33.8,10.4,38,30.21,10.0,NW,3.5,-,N/A,,Clear,320,2013-03-10 19:15:00
1:35 PM,33.8,10.4,38,30.21,10.0,NW,4.6,-,N/A,,Clear,320,2013-03-10 19:35:00
1:55 PM,33.8,8.6,35,30.20,10.0,NW,4.6,-,N/A,,Clear,310,2013-03-10 19:55:00
2:15 PM,35.6,6.8,30,30.18,10.0,Calm,Calm,-,N/A,,Clear,0,2013-03-10 20:15:00
2:35 PM,35.6,6.8,30,30.18,10.0,ESE,3.5,-,N/A,,Clear,110,2013-03-10 20:35:00
3:15 PM,35.6,12.2,38,30.16,10.0,Calm,Calm,-,N/A,,Clear,0,2013-03-10 21:15:00
3:35 PM,35.6,10.4,35,30.15,10.0,ESE,3.5,-,N/A,,Clear,120,2013-03-10 21:35:00
3:55 PM,35.6,10.4,35,30.15,10.0,SSE,3.5,-,N/A,,Clear,150,2013-03-10 21:55:00
4:15 PM,37.4,8.6,30,30.15,10.0,SSE,5.8,-,N/A,,Clear,160,2013-03-10 22:15:00
4:35 PM,37.4,10.4,33,30.14,10.0,South,5.8,-,N/A,,Clear,170,2013-03-10 22:35:00
4:55 PM,37.4,8.6,30,30.12,10.0,SE,8.1,-,N/A,,Clear,140,2013-03-10 22:55:00
5:15 PM,37.4,10.4,33,30.12,10.0,SE,8.1,-,N/A,,Clear,130,2013-03-10 23:15:00
5:35 PM,35.6,8.6,33,30.12,10.0,SSE,4.6,-,N/A,,Clear,150,2013-03-10 23:35:00
5:55 PM,35.6,8.6,33,30.12,10.0,SSE,3.5,-,N/A,,Clear,150,2013-03-10 23:55:00
6:15 PM,35.6,8.6,33,30.12,10.0,SE,4.6,-,N/A,,Clear,140,2013-03-11 00:15:00
6:35 PM,35.6,8.6,33,30.12,10.0,SE,3.5,-,N/A,,Clear,140,2013-03-11 00:35:00
6:55 PM,35.6,8.6,33,30.12,10.0,Calm,Calm,-,N/A,,Clear,0,2013-03-11 00:55:00
7:15 PM,35.6,8.6,33,30.12,10.0,SW,4.6,-,N/A,,Clear,230,2013-03-11 01:15:00
7:35 PM,35.6,8.6,33,30.12,10.0,SSW,5.8,-,N/A,,Clear,210,2013-03-11 01:35:00
7:55 PM,35.6,8.6,33,30.11,10.0,Calm,Calm,-,N/A,,Scattered Clouds,0,2013-03-11 01:55:00
8:15 PM,35.6,6.8,30,30.12,10.0,Calm,Calm,-,N/A,,Scattered Clouds,0,2013-03-11 02:15:00
8:35 PM,37.4,8.6,30,30.12,10.0,South,3.5,-,N/A,,Clear,180,2013-03-11 02:35:00
8:55 PM,37.4,8.6,30,30.11,10.0,South,3.5,-,N/A,,Clear,170,2013-03-11 02:55:00
9:15 PM,37.4,8.6,30,30.11,10.0,Calm,Calm,-,N/A,,Clear,0,2013-03-11 03:15:00
9:35 PM,35.6,8.6,33,30.10,10.0,WSW,4.6,-,N/A,,Clear,240,2013-03-11 03:35:00
9:55 PM,37.4,8.6,30,30.11,10.0,West,6.9,-,N/A,,Mostly Cloudy,270,2013-03-11 03:55:00
10:15 PM,35.6,8.6,33,30.11,10.0,West,4.6,-,N/A,,Mostly Cloudy,280,2013-03-11 04:15:00
10:35 PM,35.6,8.6,33,30.11,10.0,West,4.6,-,N/A,,Scattered Clouds,260,2013-03-11 04:35:00
11:15 PM,35.6,8.6,33,30.10,10.0,SW,3.5,-,N/A,,Mostly Cloudy,220,2013-03-11 05:15:00
11:35 PM,37.4,8.6,30,30.09,10.0,Calm,Calm,-,N/A,,Scattered Clouds,0,2013-03-11 05:35:00
11:55 PM,35.6,8.6,33,30.08,10.0,SSW,6.9,-,N/A,,Clear,200,2013-03-11 05:55:00
12:15 AM,33.8,8.6,35,30.08,10.0,SW,4.6,-,N/A,,Clear,220,2013-03-11 06:15:00
12:35 AM,35.6,8.6,33,30.07,10.0,Calm,Calm,-,N/A,,Clear,0,2013-03-11 06:35:00